Angoon, AK

1:12 AM AKDT on October 14, 2019 (GMT -0800)
Angoon

Weather History for PAGN - May, 2019

Change the Weather History Date:

Wednesday, May 8, 2019

  Actual Average (WUND) Record (WUND)
Temperature  
Mean Temperature 47 °F -  
Max Temperature 50 °F - - (-1)
Min Temperature 46 °F - - (-1)
Degree Days  
Heating Degree Days 18    
Moisture  
Dew Point 46 °F    
Average Humidity 93    
Maximum Humidity 100    
Minimum Humidity 90    
Precipitation  
Precipitation 0.00 in - - ()
Sea Level Pressure  
Sea Level Pressure 30.40 in    
Wind  
Wind Speed 1 mph (SW)    
Max Wind Speed 6 mph    
Max Gust Speed -    
Visibility 10 miles    
Events Rain    
Averages and records for this station are not official NWS values.
T = Trace of Precipitation, MM = Missing Value Source: NWS Daily Summary

Daily Weather History Graph

Daily Weather History Graph

Search for Another Location

Airport or City:

Astronomy

May. 08, 2019 Rise Set
Actual Time 4:51 AM AKDT 8:59 PM AKDT
Civil Twilight 4:01 AM AKDT 9:50 PM AKDT
Nautical Twilight 2:44 AM AKDT 11:08 PM AKDT
Astronomical Twilight 1:27 AM AKDT 12:22 AM AKDT
Moon 7:33 AM AKDT (5/8) 12:26 AM AKDT (5/8)
Length of Visible Light 17h 48m
Length of Day
16h 07m
Waxing Crescent, 17% of the Moon is Illuminated
May 8
Waxing Crescent
May 11
First Quarter
May 18
Full
May 26
Last Quarter
Jun 3
New

Hourly Weather History & Observations

Time (AKDT) Temp. Dew Point Humidity Pressure Visibility Wind Dir Wind Speed Gust Speed Precip Events Conditions
12:56 AM 46.9 °F 46.0 °F 97% 30.34 in 10.0 mi SW 3.5 mph - 0.00 in   Overcast
1:56 AM 46.0 °F 45.0 °F 96% 30.35 in 10.0 mi Calm Calm - N/A   Overcast
2:56 AM 46.0 °F 45.0 °F 96% 30.35 in 10.0 mi Calm Calm - N/A   Overcast
3:56 AM 46.0 °F 45.0 °F 96% 30.36 in 10.0 mi Calm Calm - N/A   Overcast
4:11 AM 46.4 °F 44.6 °F 93% 30.38 in 10.0 mi Calm Calm - N/A   Overcast
4:48 AM 46.4 °F 44.6 °F 93% 30.39 in 10.0 mi Calm Calm - N/A   Overcast
4:56 AM 46.0 °F 46.0 °F 100% 30.36 in 10.0 mi Calm Calm - N/A   Overcast
5:56 AM 46.0 °F 45.0 °F 96% 30.37 in 10.0 mi Calm Calm - N/A   Overcast
6:56 AM 46.0 °F 45.0 °F 96% 30.37 in 10.0 mi Calm Calm - N/A   Overcast
7:56 AM 46.9 °F 45.0 °F 93% 30.38 in 10.0 mi Calm Calm - N/A   Overcast
8:56 AM 46.9 °F 45.0 °F 93% 30.40 in 10.0 mi Calm Calm - N/A   Overcast
9:56 AM 48.0 °F 46.0 °F 93% 30.41 in 10.0 mi Calm Calm - N/A   Overcast
10:56 AM 48.0 °F 46.0 °F 93% 30.41 in 10.0 mi Calm Calm - N/A   Overcast
11:56 AM 48.0 °F 46.0 °F 93% 30.43 in 10.0 mi Variable 3.5 mph - N/A   Overcast
12:56 PM 48.9 °F 46.0 °F 90% 30.42 in 10.0 mi Calm Calm - N/A   Overcast
1:56 PM 48.9 °F 46.0 °F 90% 30.43 in 10.0 mi WSW 4.6 mph - N/A   Overcast
2:56 PM 48.9 °F 46.0 °F 90% 30.43 in 10.0 mi Calm Calm - N/A   Overcast
3:10 PM 48.2 °F 46.4 °F 93% 30.47 in 10.0 mi Variable 3.5 mph - N/A   Overcast
3:19 PM 48.2 °F 46.4 °F 93% 30.47 in 10.0 mi Variable 5.8 mph - N/A   Overcast
3:56 PM 48.9 °F 46.0 °F 90% 30.44 in 10.0 mi Variable 3.5 mph - N/A   Overcast
4:56 PM 48.9 °F 46.0 °F 90% 30.43 in 10.0 mi Calm Calm - 0.00 in   Overcast
5:23 PM 48.2 °F 46.4 °F 93% 30.45 in 10.0 mi Calm Calm - 0.00 in Rain Light Rain
5:56 PM 48.0 °F 46.0 °F 93% 30.41 in 10.0 mi Calm Calm - 0.00 in   Overcast
6:56 PM 48.9 °F 46.0 °F 90% 30.40 in 10.0 mi Calm Calm - N/A   Overcast
7:56 PM 46.9 °F 45.0 °F 93% 30.40 in 10.0 mi Calm Calm - N/A   Overcast
9:56 PM 46.9 °F 45.0 °F 93% 30.40 in 10.0 mi Calm Calm - N/A   Overcast
10:56 PM 46.9 °F 45.0 °F 93% 30.40 in 10.0 mi Calm Calm - 0.00 in Rain Light Rain
11:56 PM 46.0 °F 45.0 °F 96% 30.39 in 10.0 mi Calm Calm - 0.00 in   Overcast